sat.trackr.live / text

‹ back to catalog

STARLINK-34482

NORAD 64782 · 2025-147AD

PAYLOAD ACTIVE UNKNOWN

§ Identity

Operator
Country
US
Launch date
2025-07-08
Launch site
AFETR
Launch vehicle
Mass (kg)
RCS (m²)

Purposes: comms

External: N2YO · Heavens-Above · Gunter

§ Orbital elements

Epoch: 2026-05-25T00:07:31.250784Z

Period
93.85 min
Inclination
53.1597°
Eccentricity
0.0001061
Mean motion
15.34408653 rev/d
Perigee alt
462.0 km
Apogee alt
463.4 km
Semi-major
6,840.8 km
B*
8.2957e-4
RAAN
247.7230°
Arg perigee
101.9143°
Mean anomaly
258.1979°
Rev number
5,048

§ Raw data

STARLINK-344821 64782U 25147AD  26145.00522281  .00027763  00000+0  82957-3 0  99922 64782  53.1597 247.7230 0001061 101.9143 258.1979 15.34408653 50488

JSON: /api/v1/satellites/64782 · /tle

For live sub-satellite position, see the globe view (requires WebGL).

§ Visibility from observer

Set your observer location to see the next 7 days of passes ≥ 10°. The values pass through the URL so the page stays shareable.

No JS? Fill the form by hand. The geolocation button needs JavaScript.